Location: Tierra del Sol
(32.6128°N, 116.3319°W)
Time: 13:52:30
(UTC-08:00)

Tiangong 2 - Pass Details

Date: 10 October 2017
Orbit: 386 x 390 km, 42.8° (Epoch: 15 December)

Event Time Altitude Azimuth Distance (km) Brightness Sun altitude
Exits shadow 05:36:53 23° 321° (NW) 888 2.5 -15.3°
Maximum altitude 05:37:30 24° 341° (NNW) 849 2.6 -15.2°
Drops below altitude 10° 05:40:13 10° 38° (NE) 1,425 4.5 -14.6°
Sets 05:42:32 0° 53° (NE) 2,283 5.9 -14.1°
